Location: Degersen
(52.2871°N, 9.5716°E)
Time: 23:19:35
(UTC+00:00)

Timation 2 Rocket - Pass Details

Date: 20 January 2026
Orbit: 906 x 1072 km, 70.0° (Epoch: 9 February)

Event Time Altitude Azimuth Distance (km) Brightness Sun altitude
Exits shadow 05:45:41 - 243° (WSW) 2,939 6.1 -13.9°
Reaches altitude 10° 05:46:09 10° 245° (WSW) 2,779 5.9 -13.8°
Maximum altitude 05:52:16 43° 315° (NW) 1,351 4.4 -12.9°
Drops below altitude 10° 05:58:11 10° 27° (NNE) 2,681 6.4 -12.0°
Sets 06:00:50 0° 34° (NE) 3,607 7.2 -11.6°
